UAL133 PGUM-PTKK

Flight info

Callsign UAL133
Flight time 1h 25m
Altitude 35000
Route GUNSS WUMVE
Aircraft B738/M-SDE2E3FGHIRWXY/LB1

Departure

Time 2026-04-22 22:10
Airport Antonio B. Won Pat International Airport (PGUM)

Arrival

Time 2026-04-22 23:36
Airport Chuuk International Airport (PTKK)
Time Latitude Longitude Altitude Speed Heading
2026-04-22 21:38 13.49336 144.80846 298 ft 0 kts 333°
2026-04-22 21:58 13.49321 144.80854 300 ft 4 kts 334°
2026-04-22 21:58 13.49297 144.80866 299 ft 4 kts 334°
2026-04-22 21:59 13.49273 144.80878 298 ft 4 kts 320°
2026-04-22 21:59 13.49260 144.80898 297 ft 4 kts 269°
2026-04-22 21:59 13.49264 144.80916 297 ft 0 kts 242°
2026-04-22 22:03 13.49256 144.80902 281 ft 8 kts 242°
2026-04-22 22:03 13.49209 144.80813 298 ft 17 kts 241°
2026-04-22 22:04 13.49154 144.80708 297 ft 16 kts 242°
2026-04-22 22:04 13.49102 144.80607 297 ft 16 kts 241°
2026-04-22 22:04 13.49050 144.80510 297 ft 16 kts 241°
2026-04-22 22:04 13.48969 144.80403 294 ft 23 kts 220°
2026-04-22 22:05 13.48876 144.80273 293 ft 23 kts 240°
2026-04-22 22:05 13.48802 144.80125 291 ft 23 kts 244°
2026-04-22 22:05 13.48735 144.79981 293 ft 22 kts 244°
2026-04-22 22:05 13.48672 144.79840 291 ft 21 kts 247°
2026-04-22 22:06 13.48608 144.79701 287 ft 22 kts 245°
2026-04-22 22:06 13.48543 144.79558 286 ft 22 kts 244°
2026-04-22 22:06 13.48478 144.79417 285 ft 21 kts 245°
2026-04-22 22:06 13.48416 144.79280 285 ft 21 kts 245°
2026-04-22 22:07 13.48355 144.79147 284 ft 20 kts 245°
2026-04-22 22:07 13.48298 144.79018 284 ft 20 kts 246°
2026-04-22 22:07 13.48240 144.78894 284 ft 19 kts 244°
2026-04-22 22:07 13.48184 144.78773 283 ft 18 kts 246°
2026-04-22 22:08 13.48132 144.78656 284 ft 18 kts 244°
2026-04-22 22:08 13.48079 144.78544 281 ft 17 kts 246°
2026-04-22 22:08 13.48030 144.78435 280 ft 16 kts 245°
2026-04-22 22:08 13.47983 144.78330 279 ft 16 kts 245°
2026-04-22 22:09 13.47937 144.78230 278 ft 15 kts 244°
2026-04-22 22:09 13.47881 144.78141 275 ft 16 kts 211°
2026-04-22 22:09 13.47810 144.78206 265 ft 18 kts 71°
2026-04-22 22:09 13.47903 144.78422 267 ft 61 kts 64°
2026-04-22 22:10 13.48182 144.79031 275 ft 125 kts 65°
2026-04-22 22:10 13.48621 144.79999 460 ft 162 kts 65°
2026-04-22 22:10 13.49053 144.81046 1351 ft 159 kts 75°
2026-04-22 22:10 13.49011 144.82257 1786 ft 191 kts 109°
2026-04-22 22:11 13.48146 144.83426 2032 ft 221 kts 128°
2026-04-22 22:11 13.47071 144.84622 2450 ft 237 kts 128°
2026-04-22 22:11 13.45908 144.85923 2896 ft 254 kts 128°
2026-04-22 22:11 13.44711 144.87274 3732 ft 256 kts 129°
2026-04-22 22:12 13.43518 144.88634 4640 ft 257 kts 129°
2026-04-22 22:12 13.42318 144.90019 5461 ft 261 kts 128°
2026-04-22 22:12 13.41107 144.91429 6238 ft 266 kts 129°
2026-04-22 22:12 13.39887 144.92858 7078 ft 266 kts 128°
2026-04-22 22:13 13.38656 144.94309 7762 ft 274 kts 129°
2026-04-22 22:13 13.37401 144.95795 8523 ft 276 kts 129°
2026-04-22 22:13 13.36133 144.97299 9226 ft 283 kts 129°
2026-04-22 22:13 13.34841 144.98835 10011 ft 283 kts 129°
2026-04-22 22:14 13.33545 145.00377 10738 ft 285 kts 129°
2026-04-22 22:14 13.32247 145.01924 11430 ft 290 kts 129°
2026-04-22 22:14 13.30906 145.03524 11966 ft 299 kts 130°
2026-04-22 22:14 13.29536 145.05159 12622 ft 304 kts 130°
2026-04-22 22:15 13.28147 145.06816 13302 ft 307 kts 130°
2026-04-22 22:15 13.26745 145.08489 13960 ft 312 kts 131°
2026-04-22 22:15 13.25321 145.10189 14526 ft 317 kts 131°
2026-04-22 22:15 13.23875 145.11915 15109 ft 321 kts 131°
2026-04-22 22:16 13.22408 145.13665 15705 ft 325 kts 131°
2026-04-22 22:16 13.20926 145.15434 16317 ft 329 kts 131°
2026-04-22 22:16 13.19419 145.17232 16833 ft 335 kts 131°
2026-04-22 22:16 13.17885 145.19062 17365 ft 341 kts 131°
2026-04-22 22:17 13.16332 145.20914 17998 ft 343 kts 131°
2026-04-22 22:17 13.14766 145.22782 18516 ft 347 kts 131°
2026-04-22 22:17 13.13189 145.24663 19079 ft 348 kts 132°
2026-04-22 22:17 13.11596 145.26562 19529 ft 353 kts 132°
2026-04-22 22:18 13.09986 145.28481 20033 ft 357 kts 132°
2026-04-22 22:18 13.08383 145.30390 20591 ft 357 kts 131°
2026-04-22 22:18 13.06753 145.32331 21099 ft 361 kts 131°
2026-04-22 22:18 13.05113 145.34285 21643 ft 363 kts 132°
2026-04-22 22:19 13.03454 145.36261 22084 ft 367 kts 132°
2026-04-22 22:19 13.01779 145.38256 22559 ft 371 kts 132°
2026-04-22 22:19 13.00092 145.40265 23127 ft 371 kts 132°
2026-04-22 22:19 12.98402 145.42275 23616 ft 373 kts 131°
2026-04-22 22:20 12.96700 145.44301 23979 ft 377 kts 132°
2026-04-22 22:20 12.94976 145.46352 24348 ft 380 kts 132°
2026-04-22 22:20 12.93242 145.48415 24748 ft 383 kts 132°
2026-04-22 22:20 12.91499 145.50487 25176 ft 385 kts 132°
2026-04-22 22:21 12.89743 145.52574 25543 ft 388 kts 131°
2026-04-22 22:21 12.87977 145.54673 25942 ft 390 kts 132°
2026-04-22 22:21 12.86198 145.56787 26314 ft 393 kts 132°
2026-04-22 22:21 12.84404 145.58917 26716 ft 394 kts 131°
2026-04-22 22:22 12.82630 145.61024 27352 ft 389 kts 131°
2026-04-22 22:22 12.80868 145.63118 27847 ft 388 kts 131°
2026-04-22 22:22 12.79098 145.65218 28221 ft 390 kts 132°
2026-04-22 22:22 12.77323 145.67323 28656 ft 391 kts 133°
2026-04-22 22:23 12.75544 145.69434 29119 ft 389 kts 132°
2026-04-22 22:23 12.73786 145.71522 29705 ft 386 kts 132°
2026-04-22 22:23 12.72041 145.73592 30203 ft 384 kts 133°
2026-04-22 22:23 12.70283 145.75680 30440 ft 388 kts 133°
2026-04-22 22:24 12.68513 145.77777 30711 ft 390 kts 133°
2026-04-22 22:24 12.66750 145.79862 31216 ft 384 kts 133°
2026-04-22 22:24 12.65009 145.81926 31622 ft 382 kts 132°
2026-04-22 22:24 12.63275 145.83980 31970 ft 382 kts 132°
2026-04-22 22:25 12.61555 145.86019 32193 ft 385 kts 133°
2026-04-22 22:25 12.59799 145.88096 32429 ft 387 kts 133°
2026-04-22 22:25 12.58049 145.90168 32853 ft 383 kts 133°
2026-04-22 22:25 12.56322 145.92214 33331 ft 377 kts 133°
2026-04-22 22:26 12.54606 145.94246 33589 ft 379 kts 133°
2026-04-22 22:26 12.52874 145.96294 33744 ft 382 kts 133°
2026-04-22 22:26 12.51125 145.98359 33894 ft 386 kts 133°
2026-04-22 22:26 12.49357 146.00445 34025 ft 390 kts 133°
2026-04-22 22:27 12.47575 146.02550 34154 ft 393 kts 133°
2026-04-22 22:27 12.45775 146.04676 34261 ft 397 kts 133°
2026-04-22 22:27 12.43956 146.06823 34382 ft 401 kts 133°
2026-04-22 22:27 12.42120 146.08994 34506 ft 405 kts 133°
2026-04-22 22:28 12.40272 146.11183 34627 ft 408 kts 133°
2026-04-22 22:28 12.38403 146.13388 34752 ft 412 kts 133°
2026-04-22 22:28 12.36521 146.15609 34867 ft 415 kts 133°
2026-04-22 22:29 12.32695 146.20127 34958 ft 425 kts 133°
2026-04-22 22:29 12.28772 146.24747 34965 ft 436 kts 133°
2026-04-22 22:30 12.24752 146.29485 34974 ft 446 kts 133°
2026-04-22 22:30 12.20641 146.34334 34966 ft 456 kts 133°
2026-04-22 22:31 12.16441 146.39280 34968 ft 465 kts 132°
2026-04-22 22:31 12.12179 146.44296 34971 ft 470 kts 133°
2026-04-22 22:32 12.07869 146.49367 34951 ft 475 kts 133°
2026-04-22 22:32 12.03553 146.54445 34949 ft 476 kts 132°
2026-04-22 22:33 11.99240 146.59514 34945 ft 470 kts 133°
2026-04-22 22:33 11.94954 146.64550 34956 ft 470 kts 132°
2026-04-22 22:34 11.90666 146.69583 34955 ft 470 kts 132°
2026-04-22 22:34 11.86380 146.74611 34963 ft 470 kts 133°
2026-04-22 22:35 11.82088 146.79643 34955 ft 470 kts 133°
2026-04-22 22:35 11.77789 146.84681 34961 ft 471 kts 133°
2026-04-22 22:36 11.73486 146.89722 34954 ft 471 kts 132°
2026-04-22 22:36 11.69174 146.94771 34955 ft 472 kts 132°
2026-04-22 22:37 11.64858 146.99822 34958 ft 472 kts 133°
2026-04-22 22:37 11.60539 147.04874 34952 ft 473 kts 133°
2026-04-22 22:38 11.56215 147.09929 34957 ft 473 kts 133°
2026-04-22 22:38 11.51888 147.14985 34943 ft 473 kts 133°
2026-04-22 22:39 11.47565 147.20033 34954 ft 472 kts 133°
2026-04-22 22:39 11.43268 147.25049 34948 ft 473 kts 133°
2026-04-22 22:40 11.38943 147.30095 34955 ft 472 kts 133°
2026-04-22 22:40 11.34623 147.35133 34948 ft 472 kts 133°
2026-04-22 22:41 11.31033 147.39317 34948 ft 472 kts 133°
2026-04-22 22:41 11.26714 147.44350 34950 ft 471 kts 133°
2026-04-22 22:42 11.22393 147.49381 34949 ft 471 kts 133°
2026-04-22 22:42 11.18078 147.54404 34953 ft 471 kts 133°
2026-04-22 22:43 11.13761 147.59425 34944 ft 471 kts 133°
2026-04-22 22:43 11.09446 147.64443 34956 ft 471 kts 133°
2026-04-22 22:44 11.05132 147.69457 34945 ft 471 kts 133°
2026-04-22 22:44 11.00818 147.74468 34954 ft 470 kts 132°
2026-04-22 22:45 10.96506 147.79474 34946 ft 470 kts 133°
2026-04-22 22:45 10.92195 147.84478 34954 ft 470 kts 133°
2026-04-22 22:46 10.87916 147.89442 34951 ft 470 kts 133°
2026-04-22 22:46 10.83603 147.94443 34946 ft 470 kts 132°
2026-04-22 22:47 10.79289 147.99443 34948 ft 470 kts 132°
2026-04-22 22:47 10.74980 148.04435 34942 ft 470 kts 133°
2026-04-22 22:48 10.70677 148.09435 34955 ft 469 kts 132°
2026-04-22 22:48 10.66396 148.14446 34953 ft 469 kts 133°
2026-04-22 22:49 10.62115 148.19460 34950 ft 469 kts 132°
2026-04-22 22:49 10.57839 148.24466 34944 ft 469 kts 132°
2026-04-22 22:50 10.53562 148.29472 34950 ft 468 kts 132°
2026-04-22 22:50 10.49291 148.34466 34942 ft 468 kts 133°
2026-04-22 22:51 10.45017 148.39455 34937 ft 468 kts 132°
2026-04-22 22:51 10.40754 148.44433 34951 ft 467 kts 132°
2026-04-22 22:52 10.36519 148.49373 34942 ft 466 kts 132°
2026-04-22 22:52 10.32259 148.54344 34946 ft 466 kts 133°
2026-04-22 22:53 10.28003 148.59311 34946 ft 466 kts 132°
2026-04-22 22:53 10.23741 148.64283 34947 ft 466 kts 132°
2026-04-22 22:54 10.19483 148.69244 34937 ft 466 kts 133°
2026-04-22 22:54 10.15222 148.74207 34933 ft 466 kts 132°
2026-04-22 22:55 10.10961 148.79165 34949 ft 466 kts 132°
2026-04-22 22:55 10.04568 148.86599 34944 ft 466 kts 131°
2026-04-22 22:56 10.00308 148.91555 34944 ft 466 kts 133°
2026-04-22 22:56 9.96044 148.96511 34930 ft 466 kts 132°
2026-04-22 22:57 9.91776 149.01471 34940 ft 466 kts 132°
2026-04-22 22:57 9.87505 149.06428 34928 ft 467 kts 131°
2026-04-22 22:58 9.83232 149.11387 34936 ft 467 kts 132°
2026-04-22 22:58 9.78977 149.16327 34930 ft 468 kts 132°
2026-04-22 22:59 9.74686 149.21300 34938 ft 469 kts 131°
2026-04-22 22:59 9.70390 149.26280 34942 ft 469 kts 131°
2026-04-22 23:00 9.66090 149.31264 34931 ft 470 kts 132°
2026-04-22 23:00 9.61786 149.36249 34937 ft 470 kts 131°
2026-04-22 23:01 9.57485 149.41230 34940 ft 469 kts 132°
2026-04-22 23:01 9.53186 149.46206 34939 ft 469 kts 132°
2026-04-22 23:02 9.48890 149.51178 34932 ft 469 kts 132°
2026-04-22 23:02 9.44595 149.56144 34930 ft 468 kts 132°
2026-04-22 23:03 9.40305 149.61102 34933 ft 467 kts 131°
2026-04-22 23:03 9.36023 149.66049 34932 ft 467 kts 132°
2026-04-22 23:04 9.31746 149.70989 34933 ft 466 kts 131°
2026-04-22 23:04 9.27472 149.75924 34932 ft 466 kts 131°
2026-04-22 23:05 9.23196 149.80858 34930 ft 466 kts 132°
2026-04-22 23:05 9.18919 149.85793 34940 ft 466 kts 131°
2026-04-22 23:06 9.14646 149.90720 34934 ft 466 kts 131°
2026-04-22 23:06 9.10366 149.95652 34935 ft 466 kts 131°
2026-04-22 23:07 9.06089 150.00580 34935 ft 466 kts 131°
2026-04-22 23:07 9.01807 150.05512 34935 ft 466 kts 131°
2026-04-22 23:08 8.97527 150.10440 34935 ft 466 kts 131°
2026-04-22 23:08 8.93246 150.15368 34929 ft 465 kts 131°
2026-04-22 23:09 8.89079 150.20163 34671 ft 448 kts 131°
2026-04-22 23:09 8.87046 150.22501 34419 ft 441 kts 131°
2026-04-22 23:09 8.85011 150.24839 33796 ft 445 kts 131°
2026-04-22 23:10 8.82981 150.27173 33169 ft 440 kts 131°
2026-04-22 23:10 8.80966 150.29490 32455 ft 438 kts 131°
2026-04-22 23:10 8.78977 150.31776 32057 ft 428 kts 131°
2026-04-22 23:10 8.77032 150.34010 31639 ft 419 kts 131°
2026-04-22 23:11 8.75130 150.36196 31242 ft 409 kts 131°
2026-04-22 23:11 8.73261 150.38342 30875 ft 406 kts 131°
2026-04-22 23:11 8.71369 150.40515 30508 ft 419 kts 131°
2026-04-22 23:11 8.69420 150.42753 30083 ft 424 kts 131°
2026-04-22 23:12 8.67476 150.44986 29640 ft 422 kts 131°
2026-04-22 23:12 8.65545 150.47202 29205 ft 419 kts 131°
2026-04-22 23:12 8.63628 150.49402 28779 ft 415 kts 131°
2026-04-22 23:12 8.61724 150.51587 28374 ft 412 kts 131°
2026-04-22 23:13 8.59837 150.53753 27959 ft 409 kts 131°
2026-04-22 23:13 8.57963 150.55902 27556 ft 406 kts 131°
2026-04-22 23:13 8.56103 150.58035 27158 ft 403 kts 131°
2026-04-22 23:13 8.54280 150.60126 26768 ft 400 kts 131°
2026-04-22 23:14 8.52444 150.62231 26372 ft 398 kts 131°
2026-04-22 23:14 8.50621 150.64321 25980 ft 395 kts 131°
2026-04-22 23:14 8.48809 150.66398 25593 ft 393 kts 131°
2026-04-22 23:14 8.47004 150.68467 25168 ft 392 kts 131°
2026-04-22 23:15 8.45204 150.70529 24799 ft 389 kts 131°
2026-04-22 23:15 8.43416 150.72577 24391 ft 388 kts 131°
2026-04-22 23:15 8.41636 150.74617 24017 ft 386 kts 131°
2026-04-22 23:15 8.39864 150.76646 23615 ft 385 kts 131°
2026-04-22 23:16 8.38098 150.78669 23182 ft 383 kts 131°
2026-04-22 23:16 8.36343 150.80678 22764 ft 380 kts 131°
2026-04-22 23:16 8.34601 150.82672 22377 ft 377 kts 131°
2026-04-22 23:16 8.32875 150.84648 21982 ft 374 kts 131°
2026-04-22 23:17 8.31164 150.86607 21606 ft 370 kts 131°
2026-04-22 23:17 8.29468 150.88548 21224 ft 367 kts 131°
2026-04-22 23:17 8.27786 150.90472 20852 ft 364 kts 131°
2026-04-22 23:17 8.26115 150.92384 20485 ft 362 kts 131°
2026-04-22 23:18 8.24456 150.94281 20116 ft 359 kts 131°
2026-04-22 23:18 8.22809 150.96165 19760 ft 357 kts 131°
2026-04-22 23:18 8.21172 150.98038 19397 ft 354 kts 131°
2026-04-22 23:18 8.19542 150.99901 19019 ft 353 kts 130°
2026-04-22 23:19 8.17921 151.01754 18648 ft 352 kts 131°
2026-04-22 23:19 8.16306 151.03601 18278 ft 350 kts 130°
2026-04-22 23:19 8.14698 151.05438 17894 ft 348 kts 130°
2026-04-22 23:19 8.13101 151.07263 17579 ft 346 kts 130°
2026-04-22 23:20 8.11506 151.09086 17176 ft 346 kts 130°
2026-04-22 23:20 8.09910 151.10910 16791 ft 347 kts 130°
2026-04-22 23:20 8.08303 151.12746 16393 ft 351 kts 130°
2026-04-22 23:20 8.06704 151.14572 15994 ft 352 kts 130°
2026-04-22 23:21 8.05089 151.16417 15589 ft 350 kts 130°
2026-04-22 23:21 8.03478 151.18256 15187 ft 348 kts 130°
2026-04-22 23:21 8.01882 151.20079 14788 ft 346 kts 130°
2026-04-22 23:21 8.00288 151.21898 14372 ft 345 kts 130°
2026-04-22 23:22 7.98700 151.23711 13963 ft 344 kts 130°
2026-04-22 23:22 7.97114 151.25521 13535 ft 344 kts 130°
2026-04-22 23:22 7.95536 151.27322 13108 ft 342 kts 130°
2026-04-22 23:22 7.93967 151.29112 12702 ft 339 kts 130°
2026-04-22 23:23 7.92423 151.30874 12281 ft 330 kts 130°
2026-04-22 23:23 7.90927 151.32579 11892 ft 319 kts 130°
2026-04-22 23:23 7.89478 151.34232 11525 ft 310 kts 130°
2026-04-22 23:23 7.88067 151.35842 11155 ft 302 kts 130°
2026-04-22 23:24 7.86694 151.37407 10808 ft 294 kts 130°
2026-04-22 23:24 7.85359 151.38931 10589 ft 284 kts 129°
2026-04-22 23:24 7.84068 151.40403 10464 ft 279 kts 129°
2026-04-22 23:24 7.82777 151.41878 10351 ft 283 kts 130°
2026-04-22 23:25 7.81462 151.43378 10228 ft 287 kts 129°
2026-04-22 23:25 7.80132 151.44893 10094 ft 289 kts 130°
2026-04-22 23:25 7.78724 151.46327 9946 ft 290 kts 142°
2026-04-22 23:25 7.76909 151.47282 9623 ft 298 kts 154°
2026-04-22 23:26 7.75007 151.48113 9290 ft 297 kts 154°
2026-04-22 23:26 7.73113 151.48932 8974 ft 295 kts 154°
2026-04-22 23:26 7.71235 151.49749 8675 ft 293 kts 154°
2026-04-22 23:26 7.69373 151.50565 8376 ft 291 kts 154°
2026-04-22 23:27 7.67530 151.51377 8087 ft 288 kts 153°
2026-04-22 23:27 7.65697 151.52189 7800 ft 287 kts 154°
2026-04-22 23:27 7.63879 151.52995 7516 ft 285 kts 154°
2026-04-22 23:27 7.62095 151.53788 7229 ft 283 kts 153°
2026-04-22 23:28 7.60300 151.54587 6954 ft 282 kts 153°
2026-04-22 23:28 7.58511 151.55384 6670 ft 280 kts 153°
2026-04-22 23:28 7.56732 151.56176 6381 ft 279 kts 154°
2026-04-22 23:28 7.54960 151.56966 6081 ft 278 kts 153°
2026-04-22 23:29 7.53196 151.57751 5784 ft 277 kts 153°
2026-04-22 23:29 7.51441 151.58533 5492 ft 275 kts 153°
2026-04-22 23:29 7.49693 151.59311 5205 ft 274 kts 153°
2026-04-22 23:29 7.47953 151.60086 4929 ft 273 kts 153°
2026-04-22 23:30 7.46226 151.60855 4698 ft 269 kts 153°
2026-04-22 23:30 7.44519 151.61614 4433 ft 267 kts 153°
2026-04-22 23:30 7.42907 151.62505 4136 ft 263 kts 137°
2026-04-22 23:30 7.41608 151.63777 3915 ft 258 kts 133°
2026-04-22 23:31 7.40354 151.65036 3768 ft 252 kts 133°
2026-04-22 23:31 7.39525 151.65853 3700 ft 252 kts 134°
2026-04-22 23:31 7.38260 151.67089 3594 ft 253 kts 134°
2026-04-22 23:31 7.36989 151.68324 3485 ft 253 kts 134°
2026-04-22 23:32 7.35824 151.69577 3266 ft 240 kts 119°
2026-04-22 23:32 7.35357 151.71115 3070 ft 224 kts 92°
2026-04-22 23:32 7.35555 151.72620 2833 ft 212 kts 73°
2026-04-22 23:32 7.36199 151.73905 2601 ft 202 kts 54°
2026-04-22 23:33 7.37132 151.74906 2383 ft 188 kts 49°
2026-04-22 23:33 7.38015 151.75819 2125 ft 176 kts 49°
2026-04-22 23:33 7.38853 151.76686 1902 ft 172 kts 50°
2026-04-22 23:33 7.39686 151.77551 1684 ft 171 kts 49°
2026-04-22 23:34 7.40499 151.78393 1483 ft 161 kts 50°
2026-04-22 23:34 7.41248 151.79169 1296 ft 149 kts 49°
2026-04-22 23:34 7.41969 151.79916 1073 ft 151 kts 50°
2026-04-22 23:34 7.42693 151.80667 875 ft 146 kts 50°
2026-04-22 23:35 7.43388 151.81390 706 ft 144 kts 49°
2026-04-22 23:35 7.44096 151.82146 596 ft 150 kts 49°
2026-04-22 23:35 7.44854 151.82896 371 ft 156 kts 46°
2026-04-22 23:35 7.45603 151.83672 75 ft 151 kts 45°
2026-04-22 23:36 7.46255 151.84359 16 ft 102 kts 46°
2026-04-22 23:36 7.46522 151.84639 18 ft 36 kts 46°
2026-04-22 23:36 7.46684 151.84805 19 ft 26 kts 44°
2026-04-22 23:36 7.46755 151.84880 19 ft 12 kts 163°
2026-04-22 23:37 7.46684 151.84812 19 ft 16 kts 229°
2026-04-22 23:37 7.46609 151.84731 18 ft 15 kts 226°
2026-04-22 23:37 7.46535 151.84655 17 ft 15 kts 226°
2026-04-22 23:37 7.46464 151.84582 17 ft 14 kts 225°
2026-04-22 23:38 7.46396 151.84512 19 ft 14 kts 226°
2026-04-22 23:38 7.46316 151.84428 16 ft 20 kts 229°
2026-04-22 23:38 7.46223 151.84329 17 ft 19 kts 225°
2026-04-22 23:38 7.46131 151.84235 17 ft 19 kts 227°
2026-04-22 23:39 7.46013 151.84111 20 ft 24 kts 225°
2026-04-22 23:39 7.45927 151.84037 19 ft 13 kts 191°
2026-04-22 23:39 7.45860 151.84073 19 ft 10 kts 130°
2026-04-22 23:39 7.45863 151.84129 18 ft 7 kts 81°
2026-04-22 23:40 7.45846 151.84152 20 ft 3 kts 189°
2026-04-22 23:40 7.45829 151.84140 18 ft 0 kts 226°